Glasgow, United Kingdom

7:52 AM BST on August 24, 2016 (GMT +0100)
Glasgow

Weather History for EGPF - May, 2013

Change the Weather History Date:

Saturday, May 18, 2013

  Actual Average Record
Temperature  
Mean Temperature 52 °F -  
Max Temperature 59 °F 59 °F 69 °F (1998)
Min Temperature 46 °F 45 °F 35 °F (2005)
Degree Days  
Heating Degree Days 12    
Growing Degree Days 2 (Base 50)    
Moisture  
Dew Point 49 °F    
Average Humidity 89    
Maximum Humidity 100    
Minimum Humidity 62    
Precipitation  
Precipitation 0.00 in - - ()
Sea Level Pressure  
Sea Level Pressure 29.78 in    
Wind  
Wind Speed 5 mph ()    
Max Wind Speed 14 mph    
Max Gust Speed -    
Visibility 5.9 miles    
Events Rain    
Averages and records for this station are not official NWS values.
T = Trace of Precipitation, MM = Missing Value Source: Averaged Metar Reports

Daily Weather History Graph

Daily Weather History Graph

Search for Another Location

Airport or City:

Trip Planner

Search our weather history database for the weather conditions in past years. The results will help you decide how hot, cold, wet, or windy it might be!

Date:

Astronomy

May. 18, 2013 Rise Set
Actual Time 5:00 AM BST 9:29 PM BST
Civil Twilight 4:09 AM BST 10:20 PM BST
Nautical Twilight 2:48 AM BST 11:43 PM BST
Astronomical Twilight Sun does not set Sun does not set
Moon 1:01 PM BST (5/18) 2:05 AM BST (5/18)
Length of Visible Light 18h 11m
Length of Day
16h 29m
First Quarter, 53% of the Moon is Illuminated
May 18
First Quarter
May 25
Full
May 31
Last Quarter
Jun 8
New
Jun 16
First Quarter

Hourly Weather History & Observations

Time (BST) Temp. Windchill Dew Point Humidity Pressure Visibility Wind Dir Wind Speed Gust Speed Precip Events Conditions
12:20 AM 51.8 °F - 39.2 °F 62% 29.86 in - North 3.5 mph - N/A   Clear
12:50 AM 50.0 °F - 41.0 °F 71% 29.86 in - Variable 3.5 mph - N/A   Clear
1:20 AM 50.0 °F - 41.0 °F 71% 29.86 in - Variable 3.5 mph - N/A   Clear
1:50 AM 50.0 °F - 41.0 °F 71% 29.86 in - Variable 2.3 mph - N/A   Clear
2:20 AM 50.0 °F - 42.8 °F 76% 29.83 in - WSW 4.6 mph - N/A   Clear
2:50 AM 50.0 °F - 42.8 °F 76% 29.83 in 6.2 mi West 6.9 mph - N/A Rain Light Rain
3:20 AM 48.2 °F - 44.6 °F 87% 29.83 in 5.6 mi SW 6.9 mph - N/A Rain Light Rain
3:50 AM 48.2 °F - 44.6 °F 87% 29.83 in 6.2 mi West 5.8 mph - N/A Rain Light Rain
4:20 AM 48.2 °F - 44.6 °F 87% 29.83 in 5.6 mi West 4.6 mph - N/A Rain Light Rain
4:50 AM 46.4 °F 45.2 °F 46.4 °F 100% 29.80 in 6.2 mi West 3.5 mph - N/A Rain Light Rain
5:20 AM 48.2 °F - 46.4 °F 93% 29.80 in 6.2 mi WNW 4.6 mph - N/A Rain Light Rain
5:50 AM 48.2 °F - 46.4 °F 93% 29.80 in 6.2 mi West 4.6 mph - N/A Rain Light Rain
6:20 AM 48.2 °F - 46.4 °F 93% 29.83 in 5.6 mi WSW 4.6 mph - N/A Rain Light Rain
6:50 AM 48.2 °F - 46.4 °F 93% 29.80 in 6.2 mi WNW 4.6 mph - N/A Rain Light Rain
7:20 AM 48.2 °F - 46.4 °F 93% 29.80 in 6.2 mi Variable 3.5 mph - N/A Rain Light Rain
7:50 AM 48.2 °F - 46.4 °F 93% 29.80 in 6.2 mi West 4.6 mph - N/A Rain Light Rain
8:20 AM 48.2 °F - 46.4 °F 93% 29.80 in 6.2 mi Variable 3.5 mph - N/A   Mostly Cloudy
8:50 AM 48.2 °F - 46.4 °F 93% 29.80 in 6.2 mi WNW 5.8 mph - N/A   Mostly Cloudy
9:20 AM 50.0 °F - 46.4 °F 87% 29.80 in 6.2 mi West 5.8 mph - N/A   Mostly Cloudy
9:50 AM 50.0 °F - 48.2 °F 94% 29.77 in 6.2 mi WNW 8.1 mph - N/A   Overcast
10:20 AM 51.8 °F - 48.2 °F 88% 29.77 in 6.2 mi West 5.8 mph - N/A   Mostly Cloudy
10:50 AM 51.8 °F - 48.2 °F 88% 29.77 in 6.2 mi WNW 5.8 mph - N/A   Mostly Cloudy
11:20 AM 53.6 °F - 50.0 °F 88% 29.74 in 6.2 mi Variable 3.5 mph - N/A   Mostly Cloudy
11:50 AM 53.6 °F - 50.0 °F 88% 29.74 in 6.2 mi Calm Calm - N/A Rain Light Rain
12:20 PM 53.6 °F - 50.0 °F 88% 29.74 in 4.3 mi WNW 4.6 mph - N/A Rain Light Rain
12:50 PM 55.4 °F - 51.8 °F 88% 29.74 in 3.7 mi Variable 2.3 mph - N/A Rain Rain
1:20 PM 55.4 °F - 51.8 °F 88% 29.74 in 5.6 mi ESE 4.6 mph - N/A Rain Light Rain
1:50 PM 55.4 °F - 53.6 °F 94% 29.71 in 5.0 mi Variable 3.5 mph - N/A Rain Light Rain
2:20 PM 55.4 °F - 53.6 °F 94% 29.74 in 3.1 mi SSE 5.8 mph - N/A Rain Rain
2:50 PM 57.2 °F - 55.4 °F 94% 29.74 in 5.6 mi ENE 6.9 mph - N/A Rain Light Rain
3:20 PM 57.2 °F - 55.4 °F 94% 29.71 in 5.6 mi ENE 9.2 mph - N/A Rain Light Rain
3:50 PM 57.2 °F - 55.4 °F 94% 29.71 in 6.2 mi ENE 8.1 mph - N/A Rain Light Rain
4:20 PM 57.2 °F - 55.4 °F 94% 29.71 in 6.2 mi ENE 4.6 mph - N/A Rain Light Rain
4:50 PM 57.2 °F - 55.4 °F 94% 29.71 in 6.2 mi ENE 3.5 mph - N/A   Mostly Cloudy
5:20 PM 59.0 °F - 55.4 °F 88% 29.71 in 6.2 mi East 9.2 mph - N/A   Mostly Cloudy
5:50 PM 59.0 °F - 55.4 °F 88% 29.71 in 6.2 mi East 13.8 mph - N/A   Mostly Cloudy
6:20 PM 57.2 °F - 53.6 °F 88% 29.71 in 6.2 mi East 13.8 mph - N/A Rain Light Rain
6:50 PM 55.4 °F - 53.6 °F 94% 29.74 in 6.2 mi ESE 13.8 mph - N/A Rain Light Rain
7:20 PM 53.6 °F - 51.8 °F 94% 29.74 in - East 12.7 mph - N/A Rain Rain
7:50 PM 53.6 °F - 51.8 °F 94% 29.74 in 6.2 mi East 11.5 mph - N/A   Mostly Cloudy
8:20 PM 53.6 °F - 51.8 °F 94% 29.74 in 6.2 mi East 11.5 mph - N/A Rain Light Rain
8:50 PM 53.6 °F - 51.8 °F 94% 29.77 in 6.2 mi East 8.1 mph - N/A Rain Light Rain
9:20 PM 53.6 °F - 51.8 °F 94% 29.77 in 6.2 mi East 10.4 mph - N/A Rain Light Rain
9:50 PM 53.6 °F - 51.8 °F 94% 29.77 in 6.2 mi East 10.4 mph - N/A   Mostly Cloudy
10:20 PM 53.6 °F - 50.0 °F 88% 29.80 in 6.2 mi East 9.2 mph - N/A Rain Light Rain
10:50 PM 53.6 °F - 50.0 °F 88% 29.80 in 6.2 mi East 10.4 mph - N/A   Overcast
11:20 PM 51.8 °F - 50.0 °F 94% 29.80 in 5.0 mi East 9.2 mph - N/A Rain Light Rain
11:50 PM 51.8 °F - 50.0 °F 94% 29.80 in 5.0 mi East 6.9 mph - N/A Rain Light Rain